Flag for U.S.A. Weather past 2 weeks in Vista, California, U.S.A.

Now
60 °F

Overcast.


Feels Like: 60 °F
Forecast: 50 / 71 °F
Wind: 5 mph from Southwest

Location: McClellan-Palomar Airport

Current Time: Mar 31, 2015 at 10:46:19 AM

Latest Report: Mar 31, 2015 at 9:53 AM


Visibility: 6 mi

Pressure: 30.02 "Hg

Humidity: 80%

Dew point: 54 °F

Location of VistaLocation

Historic Weather in Vista — Graph

°F

Vista temperature yesterday

Maximum temperature yesterday: 68 °F (at 12:53 PM)
Minimum temperature yesterday: 56 °F (at 3:53 AM)
Average temperature yesterday: 61 °F

Past Weeks' High & Low Weather Summary

 TemperatureHumidityPressure
High86 °F (Mar 16, 10:53 AM)97% (Mar 21, 4:53 AM)30.18 "Hg (Mar 21, 4:53 AM)
Low54 °F (Mar 24, 6:53 AM)13% (Mar 16, 10:53 AM)29.87 "Hg (Mar 16, 5:53 PM)
Average64 °F69%30.02 "Hg
* Reported Mar 16 9:53 AM — Mar 31 9:53 AM, Vista, Weather by CustomWeather, © 2015

Note: Actual official high and low records may vary slightly from our data, if they occured in-between our weather recording intervals... More about our weather records

Advertising

Vista weather history for previous 24 hours

 ConditionsComfort  
Time TempWeatherWind HumidityBarometerVisibility
9:53 AM
Tue, Mar 31
60 °FOvercast.5 mph80%30.02 "Hg6 mi
8:53 AM59 °FLow clouds.5 mph84%29.99 "Hg5 mi
7:53 AM58 °FFog.No wind87%29.99 "Hg4 mi
6:53 AM58 °FFog.No wind90%29.97 "Hg5 mi
5:53 AM57 °FFog.No wind93%29.95 "Hg3 mi
4:53 AM57 °FFog.No wind93%29.97 "Hg4 mi
3:53 AM59 °FFog.3 mph87%29.97 "Hg5 mi
2:53 AM60 °FLow clouds.5 mph83%29.98 "Hg7 mi
1:53 AM60 °FLow clouds.No wind86%30.00 "Hg9 mi
12:53 AM61 °FLow clouds.No wind87%29.99 "Hg9 mi
11:53 PM
Mon, Mar 30
61 °FLow clouds.No wind90%29.99 "Hg8 mi
10:53 PM61 °FClear.No wind83%29.99 "Hg9 mi
9:53 PM61 °FClear.No wind83%29.99 "Hg9 mi
8:53 PM62 °FClear.No wind83%29.98 "Hg10 mi
7:53 PM63 °FSunny.3 mph81%29.97 "Hg10 mi
6:53 PM64 °FSunny.5 mph78%29.96 "Hg10 mi
5:53 PM66 °FSunny.7 mph73%29.95 "Hg10 mi
4:53 PM68 °FSunny.8 mph63%29.95 "Hg10 mi
3:53 PM68 °FSunny.7 mph63%29.96 "Hg10 mi
2:53 PM68 °FSunny.6 mph65%29.97 "Hg10 mi
1:53 PM67 °FSunny.10 mph66%29.99 "Hg10 mi
12:53 PM68 °FSunny.10 mph63%30.00 "Hg10 mi
11:53 AM66 °FSunny.No wind65%30.02 "Hg10 mi
11:02 AM63 °FPassing clouds.No wind75%30.04 "Hg7 mi
Weather by CustomWeather, © 2015

See weather overviewHow to use our weather pages